User: anonymous   Login
Location: ?????
(54.9266°N, 38.5527°E)
Time: 02:32:11
(UTC+00:00)
Language:

COBE Rocket - Orbit

View from above orbital plane
View from above orbital plane
View from above satellite
View from above satellite

Ground track
Ground track

The orbit data is extracted from the following two-line orbital elements,

1 20323U 89089B   24174.37938428  .00000539  00000-0  14565-3 0  9997
2 20323  97.1166 108.2755 0068853 296.5543  62.8608 14.49550141805102
Epoch (UTC): 22 June 2024 09:06:18
Eccentricity: 0.0068853
inclination: 97.1166°
perigee height: 678 km
apogee height: 776 km
right ascension of ascending node: 108.2755°
argument of perigee: 296.5543°
revolutions per day: 14.49550141
mean anomaly at epoch: 62.8608°
orbit number at epoch: 80510

The dashed part of the orbit path shows where the satellite is in the earth's shadow,  

DLR